STARLINK-1296, 45412

Orbit data source: Space-Track

STARLINK-1296, 45412 is a payload satellite owned by SpaceX/Seattle (US) in LEO that was launched on Wed, 18 Mar 2020 UTC via an FALCON 9 launch vehicle from the Air Force Eastern Test Range (AFETR). Payload-class satellites include a variety of spacecraft equipped with specific instruments for various scientific and technological missions. These include communications satellites like Starlink; space stations such as the ISS; scientific satellites like the Hubble; Earth observation satellites from companies like Planet Labs, Umbra, and HawkEye 360; GPS; miniature CubeSats for education and research; and military/defense satellites.

Loading next visibility...
Identifier
45412, 2020-019BE
Orbit
LEO
Country
Flag of USUS
Related business
Manufacturer
SpaceX/Seattle
Mission
Partially operational Commercial Communications
Bus & Motor
STARLINK, Unknown motor
Mass
260 kg wet, ~248 kg dry
Launch date (UTC)
2020-03-18 (6 years ago)
Launch vehicle
FALCON 9
Launch site
Air Force Eastern Test Range (AFETR)
Object type
Payload
Rocket body
Debris
Shape & HBR
Box + 1 Pan, 10.1 m
Radar Cross Section
13.562 m², Large (>1 m²)

Expand to show TLE details & history
Last TLE update: 6 hours ago

TLE from 6 hours ago
0 STARLINK-1296
1 45412U 20019BE  26120.08797758  .00068376  00000-0  19869-2 0  9995
2 45412  53.1593 249.6962 0003620 302.6302  57.4351 15.34861693337856
Epoch: 2026-04-30T02:06Z
TLE epoch observation values (Epoch: 2026-04-30T02:06:41.262Z)
Latitude
-0.00005°
Longitude
-0.01538°
Altitude
460.901 km
Speed
7.638 km/s
True Right ascension
16h 38m 47s
True Declination
0° 00' 00"
Sunlit
Object was in full shadow at epoch
Visualization orbit readout
Latitude
Unknown
Longitude
Unknown
Altitude
Unknown
Speed
Unknown
Apparent Right ascension
Unknown
Apparent Declination
Unknown
Sunlit
N/A
Visualization observer readout
Local Sidereal Time
15:39:02
Azimuth
Unknown
Elevation
Unknown
Doppler factor
Unknown
Orbital elements
Apogee altitude
464.064 km
Perigee altitude
459.112 km
Semi-major axis
6,839.725 km
Eccentricity
0.00036
Inclination
53.1593°
RAAN
249.6962°
Arg. of periapsis
302.6302°
True anomaly
57.47007°
Mean anomaly
57.4351°
Eccentric anomaly
57.45258°
Mean motion
3.83694 °/min
Orbital period
93.82 mins
BSTAR
0.0019869
Loading maneuver chart data...
Computing Atmospheric mass density...
Loading historical data...
Loading historical data...
Loading historical data...
Loading historical data...
Loading historical data...
Loading historical data...
Loading historical data...

Documentation

Showing up to 5 results
|